Location: Unspecified
(35.6961°N, 0.0000°E)
Time: 23:06:17
(UTC+00:00)

UNISAT 6 - Pass Details

Date: 21 June 2019
Orbit: 606 x 690 km, 97.7° (Epoch: 13 October)

Event Time Altitude Azimuth Distance (km) Brightness Sun altitude
Rises 19:43:06 0° 37° (NE) 2,889 ? -5.0°
Reaches altitude 10° 19:46:32 10° 67° (ENE) 1,992 ? -5.5°
Maximum altitude 19:48:25 13° 93° (E) 1,830 ? -5.9°
Drops below altitude 10° 19:50:19 10° 119° (ESE) 2,006 ? -6.2°
Enters shadow 19:51:16 - 129° (SE) 2,202 ? -6.3°
